FW6366 Weather Reports


Display with metric or nautical units.
time (UTC)temp
F
wind
direction
speed
MPH
gust
MPH
rain 1hr
in
rain 24hr
in
rain mn
in
humidity
%
barometer
mb
20260905042059 60 0 0.0 0.0 0.00 0.01 0.00 94 1012.1
20260905041620 60 0 0.0 0.0 0.00 0.01 0.00 94 1012.1
20260905041101 60 0 0.0 2.0 0.00 0.01 0.00 94 1012.0
20260905040600 61 0 0.0 3.0 0.00 0.01 0.00 94 1012.0
20260905040107 61 0 0.0 3.0 0.00 0.01 0.00 94 1012.0
20260905035559 61 51 0.0 3.0 0.00 0.01 0.01 94 1012.0
20260905035059 61 258 0.0 2.0 0.00 0.01 0.01 94 1011.9
20260905034614 61 0 1.0 2.0 0.00 0.01 0.01 94 1012.0
20260905034101 62 0 0.0 0.0 0.00 0.01 0.01 94 1012.0
20260905033559 62 0 0.0 0.0 0.00 0.01 0.01 94 1012.1
20260905033110 62 0 0.0 0.0 0.00 0.01 0.01 94 1012.0
20260905032601 62 0 0.0 0.0 0.00 0.01 0.01 94 1011.9
20260905032101 63 0 0.0 0.0 0.00 0.01 0.01 94 1011.8
20260905031615 63 0 0.0 0.0 0.00 0.01 0.01 94 1011.7
20260905031059 63 0 0.0 0.0 0.00 0.01 0.01 94 1011.7
20260905030559 63 0 0.0 0.0 0.00 0.01 0.01 94 1011.8
20260905025600 63 0 0.0 0.0 0.00 0.01 0.01 94 1012.0
20260905025100 63 0 0.0 0.0 0.00 0.01 0.01 94 1012.1
20260905024604 63 0 0.0 0.0 0.00 0.01 0.01 94 1012.0
20260905024100 63 0 0.0 0.0 0.00 0.01 0.01 94 1012.0
20260905023600 64 0 0.0 0.0 0.00 0.01 0.01 94 1012.0
20260905023137 64 0 0.0 0.0 0.00 0.01 0.01 94 1012.0
20260905022559 64 0 0.0 0.0 0.00 0.01 0.01 94 1012.1
20260905022059 64 0 0.0 0.0 0.00 0.01 0.01 94 1012.2
20260905021602 64 0 0.0 0.0 0.00 0.01 0.01 94 1012.1
20260905021059 64 0 0.0 0.0 0.00 0.01 0.01 94 1012.2
20260905020559 64 0 0.0 0.0 0.00 0.01 0.01 94 1012.2
20260905020106 64 0 0.0 0.0 0.00 0.01 0.01 94 1012.1
20260905015600 64 0 0.0 0.0 0.00 0.01 0.01 94 1012.2
20260905015102 64 0 0.0 0.0 0.00 0.01 0.01 94 1012.2
20260905014620 64 0 0.0 0.0 0.00 0.01 0.01 94 1012.2
20260905014100 64 0 0.0 1.0 0.00 0.01 0.01 94 1012.1
20260905013602 64 0 0.0 1.0 0.00 0.01 0.01 94 1012.1
20260905013109 64 0 0.0 1.0 0.00 0.01 0.01 94 1012.3
20260905012600 64 0 0.0 0.0 0.00 0.01 0.01 94 1012.3
20260905012100 64 0 0.0 0.0 0.00 0.01 0.01 94 1012.4
20260905011607 64 0 0.0 1.0 0.00 0.01 0.01 94 1012.2
20260905011102 64 0 0.0 1.0 0.00 0.01 0.01 93 1012.3
20260905010602 64 0 0.0 1.0 0.00 0.01 0.01 93 1012.2
20260905010105 64 0 0.0 0.0 0.00 0.01 0.01 93 1012.2
20260905005559 64 0 0.0 1.0 0.00 0.01 0.01 93 1012.2
20260905005059 64 0 0.0 1.0 0.00 0.01 0.01 93 1012.1
20260905004609 64 0 0.0 1.0 0.00 0.01 0.01 93 1012.1
20260905004101 64 0 0.0 0.0 0.00 0.01 0.01 93 1012.1
20260905003604 64 0 0.0 1.0 0.00 0.01 0.01 93 1012.2
20260905003106 64 0 0.0 1.0 0.00 0.01 0.01 93 1012.1
20260905002600 64 0 0.0 1.0 0.00 0.01 0.01 93 1012.2
20260905002100 64 0 0.0 1.0 0.00 0.01 0.01 93 1012.1
20260905001610 64 0 0.0 1.0 0.00 0.01 0.01 92 1011.9
20260905001059 64 0 0.0 1.0 0.00 0.01 0.01 92 1012.0
20260905000559 64 0 0.0 0.0 0.00 0.01 0.01 92 1012.0
20260905000121 64 0 0.0 0.0 0.00 0.01 0.01 92 1011.9
20260904235601 64 0 0.0 0.0 0.00 0.01 0.01 92 1011.8
20260904235104 64 0 0.0 0.0 0.00 0.01 0.01 91 1011.8
20260904234606 65 0 0.0 1.0 0.00 0.01 0.01 92 1011.7
20260904234101 65 0 0.0 1.0 0.00 0.01 0.01 91 1011.6
20260904233600 65 0 0.0 0.0 0.00 0.01 0.01 90 1011.7
20260904233104 65 0 0.0 1.0 0.00 0.01 0.01 90 1011.7
20260904232600 66 0 0.0 1.0 0.00 0.01 0.01 90 1011.6
20260904232103 66 314 0.0 1.0 0.00 0.01 0.01 89 1011.6
20260904231604 66 0 0.0 1.0 0.00 0.01 0.01 90 1011.6
20260904231059 67 297 0.0 1.0 0.00 0.01 0.01 89 1011.5
20260904230559 67 0 0.0 2.0 0.00 0.01 0.01 90 1011.5
20260904230105 67 0 0.0 2.0 0.00 0.01 0.01 90 1011.5
20260904225559 68 311 0.0 2.0 0.00 0.10 0.01 90 1011.5
20260904225102 68 313 0.0 0.0 0.00 0.10 0.01 90 1011.4
20260904224607 68 0 0.0 1.0 0.00 0.10 0.01 90 1011.4
20260904224100 68 0 0.0 2.0 0.00 0.10 0.01 89 1011.5
20260904223600 69 0 0.0 2.0 0.00 0.10 0.01 89 1011.4
20260904223105 69 289 0.0 2.0 0.00 0.10 0.01 89 1011.5
20260904222559 69 0 0.0 3.0 0.00 0.10 0.01 88 1011.4
20260904222059 69 0 0.0 3.0 0.00 0.10 0.01 88 1011.5
20260904221606 69 297 1.0 2.0 0.00 0.10 0.01 87 1011.4
20260904221104 69 300 1.0 2.0 0.00 0.10 0.01 87 1011.5
20260904220600 69 315 1.0 2.0 0.00 0.10 0.01 87 1011.3
20260904220119 69 301 1.0 3.0 0.00 0.10 0.01 86 1011.2
20260904215559 69 319 1.0 3.0 0.00 0.10 0.01 86 1011.3
20260904215100 70 299 1.0 3.0 0.00 0.10 0.01 86 1011.3
20260904214620 70 316 1.0 2.0 0.00 0.10 0.01 86 1011.4
20260904214100 70 300 0.0 3.0 0.00 0.10 0.01 86 1011.3
20260904213600 70 307 0.0 3.0 0.00 0.10 0.01 86 1011.3
20260904213107 70 303 0.0 3.0 0.00 0.10 0.01 86 1011.4
20260904212600 70 308 1.0 3.0 0.00 0.10 0.01 86 1011.4
20260904212059 70 297 1.0 3.0 0.00 0.10 0.01 86 1011.5
20260904211608 70 311 1.0 3.0 0.00 0.10 0.01 87 1011.5
20260904211059 70 314 1.0 3.0 0.00 0.10 0.01 87 1011.4
20260904210601 70 311 1.0 4.0 0.00 0.10 0.01 87 1011.4
20260904210119 70 320 1.0 4.0 0.00 0.10 0.01 86 1011.4
20260904205602 71 345 1.0 3.0 0.00 0.10 0.01 86 1011.4
20260904205059 71 323 1.0 3.0 0.00 0.10 0.01 86 1011.4
20260904204604 71 326 0.0 3.0 0.00 0.10 0.01 86 1011.4
20260904204100 71 318 1.0 3.0 0.00 0.10 0.01 86 1011.4
20260904203602 70 302 1.0 3.0 0.00 0.10 0.01 86 1011.3
20260904203107 71 0 1.0 3.0 0.00 0.10 0.01 86 1011.4
20260904202600 71 281 0.0 2.0 0.00 0.10 0.01 86 1011.4
20260904202100 71 303 0.0 2.0 0.00 0.10 0.01 85 1011.5
20260904201604 71 297 1.0 2.0 0.00 0.10 0.01 84 1011.5
20260904201059 71 298 0.0 3.0 0.00 0.10 0.01 84 1011.4
20260904200559 71 301 1.0 3.0 0.00 0.10 0.01 83 1011.5
20260904200107 71 0 1.0 3.0 0.00 0.10 0.01 83 1011.4
20260904195600 71 299 1.0 3.0 0.00 0.10 0.01 82 1011.4
20260904195101 71 0 1.0 3.0 0.00 0.10 0.01 82 1011.5
20260904194612 71 320 1.0 2.0 0.00 0.10 0.01 82 1011.4
20260904194100 71 340 0.0 2.0 0.00 0.10 0.01 82 1011.5
20260904193600 72 301 0.0 2.0 0.00 0.10 0.01 81 1011.7
20260904193116 72 0 0.0 3.0 0.00 0.10 0.01 82 1011.5
20260904192559 71 356 0.0 3.0 0.00 0.10 0.01 82 1011.6
20260904192059 71 0 0.0 2.0 0.00 0.10 0.01 82 1011.7
20260904191601 71 290 0.0 3.0 0.00 0.10 0.01 80 1011.7
20260904191100 72 0 0.0 5.0 0.00 0.10 0.01 81 1011.6
20260904190600 72 0 0.0 6.0 0.00 0.10 0.01 79 1011.6
20260904190106 72 0 2.0 8.0 0.00 0.10 0.01 78 1011.6
20260904185603 73 36 1.0 8.0 0.00 0.10 0.01 79 1011.6
20260904185105 74 0 2.0 8.0 0.00 0.10 0.01 79 1011.6
20260904184621 73 0 1.0 3.0 0.00 0.10 0.01 80 1011.6
20260904184100 73 0 1.0 3.0 0.00 0.10 0.01 79 1011.6
20260904183600 72 305 0.0 3.0 0.00 0.10 0.01 78 1011.6
20260904183102 72 0 0.0 4.0 0.00 0.10 0.01 78 1011.6
20260904182600 73 0 1.0 6.0 0.00 0.10 0.01 77 1011.6
20260904182059 74 324 1.0 6.0 0.00 0.10 0.01 74 1011.6
20260904181612 74 0 2.0 6.0 0.00 0.10 0.01 68 1011.5
20260904181103 75 188 0.0 4.0 0.00 0.10 0.01 75 1011.6
20260904180559 76 301 0.0 7.0 0.00 0.10 0.01 73 1011.5
20260904180119 75 0 0.0 7.0 0.00 0.10 0.01 78 1011.7
20260904175602 73 347 0.0 7.0 0.00 0.10 0.01 78 1011.7
20260904175059 73 307 1.0 4.0 0.00 0.10 0.01 75 1011.7
20260904174620 74 121 1.0 4.0 0.00 0.10 0.01 72 1011.8
20260904174100 75 0 1.0 7.0 0.00 0.10 0.01 70 1011.7
20260904173559 76 313 0.0 7.0 0.00 0.10 0.01 69 1011.7
20260904173110 75 0 3.0 7.0 0.00 0.10 0.01 71 1011.6
20260904172559 74 0 0.0 3.0 0.00 0.10 0.01 80 1011.8
20260904172059 73 0 0.0 9.0 0.00 0.10 0.01 80 1011.8
20260904171606 74 0 2.0 9.0 0.00 0.10 0.01 76 1011.8
20260904171100 75 13 4.0 9.0 0.00 0.10 0.01 70 1011.7
20260904170558 75 68 1.0 6.0 0.00 0.10 0.01 79 1011.7
20260904165558 73 0 1.0 6.0 0.00 0.10 0.01 80 1012.0
20260904165058 74 360 1.0 6.0 0.00 0.10 0.01 76 1011.9
20260904164602 74 1 2.0 6.0 0.00 0.10 0.01 73 1012.0
20260904164059 72 353 0.0 4.0 0.00 0.10 0.01 83 1011.9
20260904163559 72 44 1.0 4.0 0.00 0.10 0.01 82 1012.1
20260904163111 72 311 1.0 6.0 0.00 0.10 0.01 80 1012.0
20260904162559 74 0 1.0 9.0 0.00 0.10 0.01 78 1012.1
20260904162058 75 77 2.0 9.0 0.00 0.10 0.01 74 1012.1
20260904161605 74 25 2.0 7.0 0.00 0.10 0.01 77 1012.1
20260904161102 72 0 0.0 4.0 0.00 0.10 0.01 85 1012.3
20260904160601 71 290 2.0 4.0 0.00 0.10 0.01 83 1012.3
20260904160106 71 344 1.0 7.0 0.00 0.10 0.01 81 1012.4
20260904155602 72 288 2.0 7.0 0.00 0.10 0.01 79 1012.4
20260904155101 73 44 0.0 6.0 0.00 0.10 0.01 75 1012.2
20260904154606 73 0 2.0 5.0 0.00 0.10 0.01 74 1012.4
20260904154102 72 300 1.0 7.0 0.00 0.10 0.01 78 1012.4
20260904153559 73 0 3.0 8.0 0.00 0.10 0.01 78 1012.5
20260904153124 74 79 3.0 8.0 0.00 0.10 0.01 74 1012.6
20260904152558 74 39 0.0 4.0 0.00 0.10 0.01 84 1012.5
20260904152058 74 0 1.0 4.0 0.00 0.10 0.01 79 1012.6
20260904151606 73 52 1.0 5.0 0.00 0.10 0.01 88 1012.7
20260904151100 73 0 0.0 6.0 0.00 0.10 0.01 80 1012.5
20260904150559 73 50 1.0 6.0 0.00 0.10 0.01 79 1012.6
20260904150103 73 0 1.0 6.0 0.00 0.10 0.01 81 1012.8
20260904145558 72 0 1.0 3.0 0.00 0.10 0.01 84 1012.7
20260904145058 71 1 1.0 5.0 0.00 0.10 0.01 86 1012.7
20260904144603 72 305 0.0 5.0 0.00 0.10 0.01 83 1012.7
20260904144059 73 41 0.0 5.0 0.00 0.10 0.01 80 1012.7
20260904143600 73 0 0.0 6.0 0.00 0.10 0.01 80 1012.5
20260904143106 73 0 1.0 6.0 0.00 0.10 0.01 81 1012.6
20260904142600 73 0 2.0 6.0 0.00 0.10 0.01 80 1012.6
20260904142101 72 153 0.0 3.0 0.00 0.10 0.01 81 1012.6
20260904141604 72 132 0.0 3.0 0.00 0.10 0.01 83 1012.7
20260904141059 71 0 1.0 3.0 0.00 0.10 0.01 84 1012.6
20260904140559 71 36 1.0 3.0 0.00 0.10 0.01 85 1012.7
20260904135600 70 0 1.0 4.0 0.00 0.10 0.01 86 1012.7
20260904135100 70 0 0.0 3.0 0.00 0.10 0.01 85 1012.8
20260904134605 70 161 1.0 4.0 0.00 0.10 0.01 89 1012.7
20260904134059 70 143 1.0 4.0 0.00 0.10 0.01 89 1012.7
20260904133559 69 124 2.0 3.0 0.00 0.10 0.01 90 1012.7
20260904133113 68 154 1.0 4.0 0.00 0.10 0.01 90 1012.7
20260904132600 68 176 1.0 5.0 0.00 0.10 0.01 90 1012.7
20260904132101 68 121 2.0 5.0 0.00 0.10 0.01 92 1012.7
20260904131609 67 125 2.0 4.0 0.00 0.10 0.01 92 1012.6
20260904131059 67 131 1.0 4.0 0.00 0.10 0.01 93 1012.7
20260904130559 65 150 0.0 5.0 0.00 0.10 0.01 93 1012.7
20260904130107 65 121 1.0 5.0 0.00 0.10 0.01 93 1012.7
20260904125600 65 185 2.0 5.0 0.00 0.10 0.01 94 1012.6
20260904125100 65 193 2.0 5.0 0.00 0.10 0.01 95 1012.8
20260904124611 64 0 2.0 5.0 0.00 0.10 0.01 95 1012.8
20260904124059 63 157 1.0 4.0 0.00 0.10 0.01 95 1012.9
20260904123602 63 181 1.0 4.0 0.00 0.10 0.01 95 1012.9
20260904123116 63 136 1.0 4.0 0.00 0.10 0.01 96 1013.0
20260904122601 62 141 1.0 3.0 0.00 0.10 0.01 96 1012.9
20260904122101 62 0 0.0 3.0 0.00 0.10 0.01 96 1013.0
20260904121605 61 117 1.0 3.0 0.00 0.10 0.01 96 1013.0
20260904121059 60 117 0.0 2.0 0.00 0.10 0.01 96 1012.9
20260904120600 60 0 0.0 2.0 0.00 0.10 0.01 96 1012.8
20260904120106 60 42 0.0 2.0 0.00 0.10 0.01 96 1012.8
20260904115600 60 0 0.0 1.0 0.00 0.11 0.01 96 1012.7
20260904115100 60 0 0.0 1.0 0.00 0.11 0.01 96 1012.7
20260904114604 59 129 0.0 2.0 0.00 0.11 0.01 95 1012.8
20260904114100 59 0 0.0 2.0 0.00 0.11 0.01 95 1012.8
20260904113600 59 141 0.0 2.0 0.00 0.11 0.01 96 1012.9
20260904113103 59 0 0.0 2.0 0.00 0.11 0.01 95 1012.8
20260904112602 58 0 0.0 1.0 0.00 0.11 0.01 95 1012.8
20260904112059 58 146 0.0 0.0 0.01 0.11 0.01 95 1012.7
20260904111609 58 0 0.0 1.0 0.01 0.11 0.01 95 1012.5
20260904111059 58 0 0.0 1.0 0.01 0.11 0.01 95 1012.7
20260904110600 58 0 0.0 1.0 0.01 0.11 0.01 95 1012.6
20260904110108 58 0 0.0 2.0 0.01 0.11 0.01 95 1012.5
20260904105601 58 0 0.0 2.0 0.01 0.11 0.01 95 1012.2
20260904105100 58 0 0.0 2.0 0.01 0.11 0.01 95 1012.1
20260904104604 58 0 0.0 2.0 0.01 0.11 0.01 95 1012.0
20260904104059 58 0 0.0 1.0 0.01 0.11 0.01 95 1012.1
20260904103559 58 0 0.0 0.0 0.01 0.11 0.01 95 1012.0
20260904103102 58 0 0.0 0.0 0.01 0.11 0.01 95 1012.0
20260904102600 58 0 0.0 0.0 0.01 0.11 0.01 95 1011.9
20260904102100 58 0 0.0 0.0 0.00 0.10 0.00 95 1012.0
20260904101612 58 0 0.0 0.0 0.00 0.10 0.00 95 1011.9
20260904101102 58 0 0.0 0.0 0.00 0.10 0.00 95 1011.9
20260904100559 58 0 0.0 1.0 0.00 0.10 0.00 95 1011.9
20260904100105 58 0 0.0 1.0 0.00 0.10 0.00 95 1011.9
20260904095558 58 0 0.0 1.0 0.00 0.10 0.00 95 1011.9
20260904095100 58 0 0.0 1.0 0.00 0.10 0.00 95 1011.7
20260904094603 58 0 0.0 1.0 0.00 0.10 0.00 95 1011.8
20260904094059 58 0 0.0 1.0 0.00 0.10 0.00 95 1011.8
20260904093632 59 0 0.0 1.0 0.00 0.10 0.00 95 1011.8
20260904093118 59 0 0.0 1.0 0.00 0.10 0.00 95 1011.7
20260904092559 59 0 0.0 1.0 0.00 0.10 0.00 95 1011.6
20260904092102 59 45 0.0 2.0 0.00 0.10 0.00 95 1011.7
20260904091606 59 0 0.0 2.0 0.00 0.10 0.00 95 1011.5
20260904091059 59 240 0.0 3.0 0.00 0.10 0.00 95 1011.5
20260904090600 59 276 0.0 4.0 0.00 0.10 0.00 95 1011.6
20260904090107 59 313 2.0 4.0 0.00 0.10 0.00 95 1011.6
20260904085603 59 69 0.0 1.0 0.00 0.10 0.00 95 1011.4
20260904085100 59 0 0.0 1.0 0.00 0.10 0.00 95 1011.4
20260904084603 59 248 0.0 1.0 0.00 0.10 0.00 95 1011.5
20260904084103 59 0 0.0 1.0 0.00 0.10 0.00 95 1011.6
20260904083603 59 0 0.0 2.0 0.00 0.10 0.00 95 1011.5
20260904083105 59 0 0.0 2.0 0.00 0.10 0.00 95 1011.6
20260904082601 59 0 0.0 2.0 0.00 0.10 0.00 95 1011.6
20260904082059 59 0 0.0 0.0 0.00 0.10 0.00 95 1011.7
20260904081604 59 0 0.0 2.0 0.00 0.10 0.00 95 1011.7
20260904081102 60 0 0.0 2.0 0.00 0.10 0.00 95 1011.7
20260904080601 60 355 1.0 2.0 0.00 0.10 0.00 95 1011.6
20260904080104 60 0 0.0 1.0 0.00 0.10 0.00 95 1011.6
20260904075600 60 0 0.0 1.0 0.00 0.10 0.00 95 1011.4
20260904075058 60 0 0.0 1.0 0.00 0.10 0.00 95 1011.5
20260904074600 60 0 0.0 2.0 0.00 0.10 0.00 95 1011.5
20260904074102 60 0 0.0 2.0 0.00 0.10 0.00 95 1011.4
20260904073601 60 0 0.0 3.0 0.00 0.10 0.00 95 1011.5
20260904073102 60 0 0.0 3.0 0.00 0.10 0.00 95 1011.5
20260904072601 60 182 0.0 3.0 0.00 0.10 0.00 95 1011.6
20260904072100 60 0 0.0 1.0 0.00 0.10 0.00 95 1011.6
20260904071605 60 0 0.0 0.0 0.00 0.10 0.00 95 1011.7
20260904071059 60 0 0.0 1.0 0.00 0.10 0.00 95 1011.7
20260904070600 60 0 0.0 1.0 0.00 0.10 0.00 95 1011.6
20260904065559 60 0 0.0 0.0 0.00 0.10 0.00 95 1011.7
20260904065103 60 0 0.0 0.0 0.00 0.10 0.00 95 1011.7
20260904064602 60 0 0.0 0.0 0.00 0.10 0.00 95 1011.6
20260904064100 60 0 0.0 0.0 0.00 0.10 0.00 95 1011.6
20260904063601 60 0 0.0 0.0 0.00 0.10 0.00 95 1011.6
20260904063103 60 0 0.0 1.0 0.00 0.10 0.00 95 1011.6
20260904062558 60 0 0.0 1.0 0.00 0.10 0.00 95 1011.7
20260904062059 60 0 0.0 0.0 0.00 0.10 0.00 95 1011.7
20260904061601 60 0 0.0 0.0 0.00 0.10 0.00 95 1011.8
20260904061100 60 0 0.0 0.0 0.00 0.10 0.00 95 1011.8
20260904060600 60 0 0.0 0.0 0.00 0.10 0.00 95 1011.9
20260904060106 60 0 0.0 0.0 0.00 0.10 0.00 95 1012.0
20260904055600 60 0 0.0 0.0 0.00 0.10 0.00 95 1012.1
20260904055059 60 0 0.0 1.0 0.00 0.10 0.00 95 1012.2
20260904054602 61 0 0.0 1.0 0.00 0.10 0.00 95 1012.1
20260904054103 61 0 0.0 1.0 0.00 0.10 0.00 95 1012.2
20260904053557 61 0 0.0 0.0 0.00 0.10 0.00 95 1012.3
20260904053106 61 0 0.0 0.0 0.00 0.10 0.00 95 1012.3
20260904052600 61 0 0.0 0.0 0.00 0.10 0.00 95 1012.4
20260904052059 61 0 0.0 0.0 0.00 0.10 0.00 95 1012.6
20260904051604 61 0 0.0 0.0 0.00 0.10 0.00 95 1012.7
20260904051100 61 0 0.0 0.0 0.00 0.10 0.00 94 1012.7
20260904050558 61 0 0.0 0.0 0.00 0.10 0.00 95 1012.7
20260904050107 61 0 0.0 0.0 0.00 0.10 0.00 95 1012.7
20260904045558 61 0 0.0 0.0 0.00 0.10 0.00 95 1012.7
20260904045059 61 0 0.0 0.0 0.00 0.10 0.00 95 1012.8
20260904044611 61 0 0.0 0.0 0.00 0.10 0.00 95 1012.8
20260904044059 62 0 0.0 0.0 0.00 0.10 0.00 95 1012.8
20260904043558 62 0 0.0 0.0 0.00 0.10 0.00 94 1012.8
20260904043102 62 0 0.0 0.0 0.00 0.10 0.00 94 1012.7
20260904042557 62 0 0.0 0.0 0.00 0.10 0.00 94 1012.7